SPOT 7

Last updated on Tue Jul 01 2025 00:02:29 GMT+0000 (Coordinated Universal Time)

1 40053U 14034A 25181.57293691 .00000300 00000+0 71310-4 0 9991 2 40053 98.1112 247.2628 0001150 98.7814 261.3517 14.60477689585804
UTC large
Height (km)
Speed (km/s)
/
Latitude / Longitude
Inclination (degrees)
Orbital Period (minutes)
Azimuth
Elevation
Range (km)
Doppler Factor

Next 0 passes for location: London (51.5072 / 0.1276)

Sorry there are no passes over London.